GW3210 Weather Reports


time (UTC)temp
C
wind
direction
speed
KPH
gust
KPH
rain 1hr
cm
rain 24hr
cm
rain mn
cm
humidity
%
barometer
mb
20260506171117 14 315 3.2 4.8 0.00 0.00 0.00 60 1022.7
20260506170117 13 338 6.4 9.7 0.00 0.00 0.00 61 1022.6
20260506165117 13 315 4.8 8.0 0.00 0.00 0.00 61 1022.8
20260506164117 13 270 4.8 8.0 0.00 0.00 0.00 60 1022.7
20260506163117 13 0 6.4 11.3 0.00 0.00 0.00 61 1022.8
20260506162117 13 315 4.8 8.0 0.00 0.00 0.00 62 1022.5
20260506161116 13 315 3.2 4.8 0.00 0.00 0.00 62 1022.3
20260506160116 13 0.0 3.2 0.00 0.00 0.00 63 1022.1
20260506155136 12 158 1.6 3.2 0.00 0.00 0.00 64 1021.8
20260506154117 12 0 3.2 4.8 0.00 0.00 0.00 65 1021.9
20260506153117 12 315 4.8 6.4 0.00 0.00 0.00 65 1022.3
20260506152116 12 293 4.8 9.7 0.00 0.00 0.00 66 1022.5
20260506151117 11 293 8.0 12.9 0.00 0.00 0.00 66 1022.7
20260506150117 11 315 9.7 14.5 0.00 0.00 0.00 66 1022.5
20260506145116 11 338 9.7 14.5 0.00 0.00 0.00 66 1022.3
20260506144137 11 293 6.4 9.7 0.00 0.00 0.00 66 1022.3
20260506143117 12 315 6.4 12.9 0.00 0.00 0.00 66 1022.1
20260506142116 12 0 6.4 9.7 0.00 0.00 0.00 66 1021.9
20260506141117 12 338 4.8 6.4 0.00 0.00 0.00 66 1021.8
20260506140116 12 293 3.2 6.4 0.00 0.00 0.00 66 1021.9
20260506135117 12 293 6.4 8.0 0.00 0.00 0.00 66 1021.7
20260506134116 12 0 4.8 8.0 0.00 0.00 0.00 66 1021.7
20260506133116 12 315 1.6 4.8 0.00 0.00 0.00 66 1021.7
20260506132116 12 293 3.2 3.2 0.00 0.00 0.00 66 1021.4
20260506131116 12 293 1.6 1.6 0.00 0.00 0.00 66 1021.2
20260506130136 12 293 1.6 1.6 0.00 0.00 0.00 67 1021.2
20260506125116 12 293 3.2 4.8 0.00 0.00 0.00 66 1021.0
20260506124137 12 315 1.6 3.2 0.00 0.00 0.00 66 1021.1
20260506123116 12 0.0 1.6 0.00 0.00 0.00 66 1021.0
20260506122116 12 315 6.4 9.7 0.00 0.00 0.00 66 1021.1
20260506121116 12 293 3.2 6.4 0.00 0.00 0.00 66 1021.0
20260506120117 12 293 6.4 9.7 0.00 0.00 0.00 66 1021.0
20260506115116 12 293 4.8 4.8 0.00 0.00 0.00 66 1020.8
20260506114116 12 293 4.8 6.4 0.00 0.00 0.00 66 1020.7
20260506113116 12 315 6.4 11.3 0.00 0.00 0.00 66 1020.6
20260506112116 12 315 4.8 11.3 0.00 0.00 0.00 66 1020.6
20260506111116 12 315 6.4 8.0 0.00 0.00 0.00 66 1020.6
20260506110117 12 315 6.4 8.0 0.00 0.00 0.00 66 1020.4
20260506105116 12 315 6.4 8.0 0.00 0.00 0.00 66 1020.3
20260506104116 12 315 4.8 6.4 0.00 0.00 0.00 66 1020.1
20260506103116 12 293 4.8 6.4 0.00 0.00 0.00 66 1020.1
20260506102116 12 293 4.8 6.4 0.00 0.00 0.00 66 1020.0
20260506101116 12 270 4.8 9.7 0.00 0.00 0.00 65 1019.9
20260506100117 12 293 4.8 9.7 0.00 0.00 0.00 65 1019.9
20260506095115 12 315 4.8 6.4 0.00 0.00 0.00 66 1019.8
20260506094116 12 293 3.2 4.8 0.00 0.00 0.00 65 1019.8
20260506093116 12 315 3.2 4.8 0.00 0.00 0.00 65 1019.8
20260506092116 12 270 4.8 6.4 0.00 0.00 0.00 65 1019.7
20260506091116 12 315 6.4 8.0 0.00 0.00 0.00 65 1019.7
20260506090116 12 315 4.8 6.4 0.00 0.00 0.00 65 1019.7
20260506085115 12 315 4.8 6.4 0.00 0.00 0.00 64 1019.7
20260506084116 13 293 6.4 9.7 0.00 0.00 0.00 64 1019.7
20260506083136 13 293 4.8 6.4 0.00 0.00 0.00 64 1019.7
20260506082116 13 293 4.8 8.0 0.00 0.00 0.00 64 1019.7
20260506081115 13 315 3.2 6.4 0.00 0.00 0.00 64 1019.5
20260506080115 13 293 4.8 8.0 0.00 0.00 0.00 64 1019.5
20260506073115 13 293 3.2 4.8 0.00 0.00 0.00 64 1019.2
20260506072116 13 315 1.6 8.0 0.00 0.00 0.00 64 1019.1
20260506071116 13 293 3.2 4.8 0.00 0.00 0.00 63 1019.1
20260506070137 13 293 3.2 4.8 0.00 0.00 0.00 63 1019.1
20260506062136 14 293 3.2 4.8 0.00 0.00 0.00 63 1019.0
20260506061116 15 293 3.2 4.8 0.00 0.00 0.00 63 1018.9
20260506060116 14 0.0 0.0 0.00 0.00 0.00 62 1018.6
20260506051116 14 0.0 1.6 0.00 0.00 0.00 62 1018.4
20260506050116 14 0.0 0.0 0.00 0.00 0.00 62 1018.3
20260506045116 14 0.0 0.0 0.00 0.00 0.00 63 1018.4
20260506044116 14 0.0 0.0 0.00 0.00 0.00 62 1018.1
20260506043116 14 0.0 0.0 0.00 0.00 0.00 62 1018.0
20260506042116 15 338 1.6 1.6 0.00 0.00 0.00 61 1017.9
20260506041116 15 0.0 1.6 0.00 0.00 0.00 60 1017.7
20260506040116 15 0.0 0.0 0.00 0.00 0.00 60 1017.6
20260506035116 15 0.0 0.0 0.00 0.00 0.00 60 1017.5
20260506034116 15 338 1.6 3.2 0.00 0.00 0.00 60 1017.5
20260506033116 15 0.0 1.6 0.00 0.00 0.00 60 1017.4
20260506032115 15 0.0 0.0 0.00 0.00 0.00 60 1017.4
20260506031116 15 0.0 1.6 0.00 0.00 0.00 59 1017.2
20260506030116 15 0.0 0.0 0.00 0.00 0.00 59 1017.3
20260506025115 15 0.0 1.6 0.00 0.00 0.00 58 1017.1
20260506024115 15 0.0 0.0 0.00 0.00 0.00 58 1017.0
20260506023136 16 338 1.6 1.6 0.00 0.00 0.00 58 1017.1
20260506022115 16 0.0 0.0 0.00 0.00 0.00 58 1017.0
20260506021116 16 0.0 1.6 0.00 0.00 0.00 58 1016.9
20260506020116 16 0.0 0.0 0.00 0.00 0.00 58 1017.0
20260506015116 16 338 1.6 3.2 0.00 0.00 0.00 58 1017.0
20260506014115 16 338 1.6 4.8 0.00 0.00 0.00 58 1017.1
20260506013115 16 0 1.6 4.8 0.00 0.00 0.00 58 1017.0
20260506012116 16 0.0 1.6 0.00 0.00 0.00 58 1017.1
20260506011115 16 0.0 1.6 0.00 0.00 0.00 58 1017.0
20260506010116 16 315 4.8 6.4 0.00 0.00 0.00 58 1017.0
20260506005118 16 315 3.2 4.8 0.00 0.00 0.00 57 1017.1
20260506004139 16 270 4.8 9.7 0.00 0.00 0.00 57 1017.1
20260506003116 16 338 4.8 6.4 0.00 0.00 0.00 57 1017.1
20260506002117 16 315 1.6 3.2 0.00 0.00 0.00 57 1017.2
20260506001118 16 315 3.2 4.8 0.00 0.00 0.00 57 1017.2
20260506000117 16 315 4.8 6.4 0.00 0.00 0.00 57 1017.3
20260505235117 16 315 3.2 6.4 0.00 0.00 0.00 56 1017.4
20260505234117 16 293 4.8 8.0 0.00 0.00 0.00 56 1017.4
20260505233117 16 315 1.6 3.2 0.00 0.00 0.00 57 1017.5
20260505232117 16 248 4.8 8.0 0.00 0.00 0.00 56 1017.5
20260505231117 16 270 8.0 11.3 0.00 0.00 0.00 56 1017.4
20260505230117 16 270 6.4 9.7 0.00 0.00 0.00 56 1017.4
20260505225117 16 270 6.4 11.3 0.00 0.00 0.00 55 1017.4
20260505224117 16 315 1.6 4.8 0.00 0.00 0.00 56 1017.5
20260505223117 16 315 3.2 4.8 0.00 0.00 0.00 55 1017.7
20260505222117 16 293 3.2 6.4 0.00 0.00 0.00 55 1017.7
20260505221138 16 315 4.8 4.8 0.00 0.00 0.00 54 1017.7
20260505220138 16 270 3.2 4.8 0.00 0.00 0.00 54 1017.8
20260505215137 16 338 3.2 3.2 0.00 0.00 0.00 56 1017.8
20260505214117 16 248 1.6 3.2 0.00 0.00 0.00 55 1017.9
20260505213117 16 270 8.0 11.3 0.00 0.00 0.00 55 1018.0
20260505212117 16 293 3.2 4.8 0.00 0.00 0.00 56 1018.0
20260505211117 16 293 1.6 3.2 0.00 0.00 0.00 56 1018.1
20260505210138 16 270 1.6 3.2 0.00 0.00 0.00 56 1018.1
20260505205117 16 315 4.8 8.0 0.00 0.00 0.00 55 1018.1
20260505204117 16 0.0 1.6 0.00 0.00 0.00 55 1018.3
20260505203117 16 293 4.8 9.7 0.00 0.00 0.00 56 1018.3
20260505202117 16 293 1.6 3.2 0.00 0.00 0.00 56 1018.2
20260505201116 16 315 3.2 6.4 0.00 0.00 0.00 56 1018.4
20260505200117 16 270 1.6 4.8 0.00 0.00 0.00 55 1018.4
20260505195117 15 315 1.6 4.8 0.00 0.00 0.00 57 1018.5
20260505194116 15 180 1.6 1.6 0.00 0.00 0.00 58 1018.5
20260505193116 15 248 4.8 6.4 0.00 0.00 0.00 57 1018.6
20260505192117 15 225 1.6 4.8 0.00 0.00 0.00 57 1018.6
20260505191116 15 248 3.2 4.8 0.00 0.00 0.00 57 1018.6
20260505190116 14 158 1.6 4.8 0.00 0.00 0.00 58 1018.6
20260505185117 14 293 3.2 4.8 0.00 0.00 0.00 59 1018.6
20260505184117 14 248 3.2 4.8 0.00 0.00 0.00 59 1018.7
20260505183137 14 248 4.8 8.0 0.00 0.00 0.00 58 1018.6
20260505182116 14 248 1.6 3.2 0.00 0.00 0.00 58 1018.6
20260505181117 14 270 4.8 6.4 0.00 0.00 0.00 59 1018.6
20260505180238 13 225 1.6 3.2 0.00 0.00 0.00 59 1018.5
20260505175117 13 180 1.6 3.2 0.00 0.00 0.00 59 1018.5
20260505174117 13 293 1.6 3.2 0.00 0.00 0.00 60 1018.6
20260505173117 13 158 3.2 3.2 0.00 0.00 0.00 60 1018.5
20260505172117 13 135 1.6 1.6 0.00 0.00 0.00 61 1018.4